Weather History for New York, NY

Change the Weather History Date:

Monday, October 7, 2013

  Actual Average Record
Temperature  
Mean Temperature 70 °F 61 °F  
Max Temperature 77 °F 68 °F 85 °F (1944)
Min Temperature 62 °F 54 °F 40 °F (1954)
Degree Days  
Heating Degree Days 0 5  
Month to date heating degree days 0 31  
Since 1 July heating degree days 31 66  
Cooling Degree Days 5 1  
Month to date cooling degree days 48 12  
Year to date cooling degree days 1399 1202  
Growing Degree Days 20 (Base 50)    
Moisture  
Dew Point 62 °F    
Average Humidity 73    
Maximum Humidity 90    
Minimum Humidity 56    
Precipitation  
Precipitation 0.33 in 0.12 in 3.44 in (1972)
Month to date precipitation 0.37 0.86  
Year to date precipitation 31.00 34.84  
Snow  
Snow 0.00 in 0.00 in - ()
Month to date snowfall 0.0 0.0  
Since 1 July snowfall 0.0 0.0  
Snow Depth 0.00 in    
Sea Level Pressure  
Sea Level Pressure 29.89 in    
Wind  
Wind Speed 14 mph (SSW)    
Max Wind Speed 29 mph    
Max Gust Speed 39 mph    
Visibility 8 miles    
Events Rain    
T = Trace of Precipitation, MM = Missing Value Source: NWS Daily Summary

Daily Weather History Graph

Daily Weather History Graph

Search for Another Location

Airport:

Trip Planner

Search our weather history database for the weather conditions in past years. The results will help you decide how hot, cold, wet, or windy it might be!

Date:

Astronomy

Oct. 07, 2013 Rise Set
Actual Time 6:58 AM EDT 6:27 PM EDT
Civil Twilight 6:31 AM EDT 6:54 PM EDT
Nautical Twilight 5:59 AM EDT 7:26 PM EDT
Astronomical Twilight 5:27 AM EDT 7:58 PM EDT
Moon 9:46 AM EDT (10/7) 8:08 PM EDT (10/7)
Length of Visible Light 12h 23m
Length of Day
11h 28m
Waxing Crescent, 8% of the Moon is Illuminated
Oct 7
Waxing Crescent
Oct 11
First Quarter
Oct 18
Full
Oct 26
Last Quarter
Nov 3
New

Hourly Weather History & Observations

Time (EDT) Temp. Dew Point Humidity Pressure Visibility Wind Dir Wind Speed Gust Speed Precip Events Conditions
12:51 AM 69.1 °F 64.9 °F 87% 30.02 in 7.0 mi SE 6.9 mph - N/A   Mostly Cloudy
1:51 AM 69.1 °F 66.0 °F 90% 30.01 in 8.0 mi SSE 6.9 mph - N/A   Overcast
2:51 AM 70.0 °F 66.0 °F 87% 29.99 in 9.0 mi South 10.4 mph - N/A   Overcast
3:51 AM 70.0 °F 66.0 °F 87% 29.98 in 9.0 mi South 10.4 mph 18.4 mph N/A   Mostly Cloudy
4:31 AM 69.8 °F 64.4 °F 83% 29.96 in 8.0 mi South 10.4 mph - N/A   Mostly Cloudy
4:46 AM 69.8 °F 66.2 °F 88% 29.96 in 8.0 mi South 12.7 mph - N/A   Mostly Cloudy
4:51 AM 69.1 °F 66.0 °F 90% 29.96 in 8.0 mi South 10.4 mph - N/A   Mostly Cloudy
5:51 AM 69.1 °F 66.0 °F 90% 29.96 in 9.0 mi South 10.4 mph 20.7 mph N/A   Overcast
6:51 AM 69.1 °F 66.0 °F 90% 29.95 in 8.0 mi South 10.4 mph - N/A   Overcast
7:51 AM 71.1 °F 66.0 °F 84% 29.94 in 9.0 mi South 11.5 mph 18.4 mph N/A   Overcast
8:44 AM 71.6 °F 66.2 °F 83% 29.92 in 10.0 mi South 13.8 mph 23.0 mph N/A   Overcast
8:51 AM 71.1 °F 66.0 °F 84% 29.92 in 10.0 mi SSE 19.6 mph 24.2 mph N/A   Overcast
9:51 AM 75.0 °F 66.0 °F 73% 29.89 in 10.0 mi South 11.5 mph 21.9 mph N/A   Mostly Cloudy
10:51 AM 75.0 °F 66.0 °F 73% 29.88 in 10.0 mi South 20.7 mph 29.9 mph N/A   Overcast
11:42 AM 75.2 °F 66.2 °F 73% 29.86 in 1.5 mi South 19.6 mph 28.8 mph N/A Rain Light Rain
11:51 AM 72.0 °F 66.9 °F 84% 29.86 in 1.5 mi South 19.6 mph 29.9 mph 0.00 in Rain Light Rain
12:07 PM 73.4 °F 68.0 °F 83% 29.85 in 8.0 mi South 21.9 mph 27.6 mph 0.00 in   Overcast
12:51 PM 73.0 °F 68.0 °F 84% 29.82 in 8.0 mi South 18.4 mph 28.8 mph 0.01 in   Overcast
1:18 PM 73.4 °F 66.2 °F 78% 29.81 in 10.0 mi South 21.9 mph 32.2 mph 0.00 in   Overcast
1:51 PM 73.9 °F 66.9 °F 79% 29.79 in 10.0 mi South 24.2 mph 34.5 mph 0.00 in   Mostly Cloudy
2:51 PM 73.9 °F 66.9 °F 79% 29.78 in 10.0 mi South 20.7 mph 36.8 mph 0.00 in   Mostly Cloudy
3:51 PM 77.0 °F 64.0 °F 64% 29.81 in 10.0 mi WSW 26.5 mph 33.4 mph N/A   Mostly Cloudy
3:59 PM 73.4 °F 60.8 °F 65% 29.82 in 10.0 mi WSW 17.3 mph 33.4 mph 0.00 in Rain Light Rain
4:39 PM 66.2 °F 62.6 °F 88% 29.84 in 2.0 mi SSW 16.1 mph 23.0 mph 0.06 in Rain Heavy Rain
4:41 PM 66.2 °F 62.6 °F 88% 29.84 in 1.2 mi SW 15.0 mph 23.0 mph 0.10 in Rain Heavy Rain
4:44 PM 66.2 °F 62.6 °F 88% 29.84 in 0.8 mi SSW 11.5 mph 23.0 mph 0.17 in Rain Heavy Rain
4:49 PM 66.2 °F 62.6 °F 88% 29.83 in 1.0 mi South 13.8 mph - 0.24 in Rain Heavy Rain
4:51 PM 66.9 °F 63.0 °F 87% 29.84 in 1.2 mi SSW 12.7 mph - 0.25 in Rain Heavy Rain
4:54 PM 66.2 °F 62.6 °F 88% 29.84 in 2.0 mi SSW 13.8 mph - 0.01 in Rain Rain
4:56 PM 66.2 °F 62.6 °F 88% 29.84 in 2.5 mi SSW 12.7 mph - 0.02 in Rain Rain
5:04 PM 66.2 °F 62.6 °F 88% 29.83 in 4.0 mi SSW 11.5 mph - 0.05 in Rain Light Rain
5:51 PM 68.0 °F 63.0 °F 84% 29.86 in 10.0 mi SW 13.8 mph 20.7 mph 0.07 in Rain Light Rain
6:26 PM 64.4 °F 57.2 °F 77% 29.89 in 10.0 mi West 17.3 mph 27.6 mph 0.00 in Rain Light Rain
6:36 PM 64.4 °F 57.2 °F 77% 29.88 in 10.0 mi WNW 12.7 mph 21.9 mph 0.00 in Rain Light Rain
6:43 PM 64.4 °F 55.4 °F 73% 29.89 in 10.0 mi WNW 15.0 mph 25.3 mph 0.00 in Rain Light Rain
6:51 PM 64.0 °F 55.9 °F 75% 29.90 in 10.0 mi West 10.4 mph 25.3 mph 0.00 in Rain Light Rain
7:51 PM 64.0 °F 53.1 °F 67% 29.91 in 10.0 mi WNW 9.2 mph - 0.00 in   Overcast
8:51 PM 63.0 °F 53.1 °F 70% 29.92 in 10.0 mi WNW 8.1 mph - N/A   Overcast
9:51 PM 63.0 °F 52.0 °F 67% 29.93 in 10.0 mi NW 11.5 mph - N/A   Overcast
10:51 PM 63.0 °F 51.1 °F 65% 29.96 in 10.0 mi NW 11.5 mph - N/A   Mostly Cloudy
11:51 PM 62.1 °F 46.9 °F 58% 29.98 in 10.0 mi WNW 13.8 mph - N/A   Mostly Cloudy